TimePDT,TemperatureF,Dew PointF,Humidity,Sea Level PressureIn,VisibilityMPH,Wind Direction,Wind SpeedMPH,Gust SpeedMPH,PrecipitationIn,Events,Conditions,WindDirDegrees,DateUTC
12:56 AM,70.9,63.9,78,29.82,10.0,South,4.6,-,0.00,,Clear,190,2013-09-10 07:56:00
1:56 AM,70.9,63.9,78,29.81,10.0,Calm,Calm,-,0.00,Rain,Heavy Rain,0,2013-09-10 08:56:00
2:56 AM,70.9,61.9,73,29.80,10.0,SSE,4.6,-,0.00,Rain,Heavy Rain,150,2013-09-10 09:56:00
3:56 AM,70.9,61.9,73,29.80,10.0,South,5.8,-,0.00,,Partly Cloudy,190,2013-09-10 10:56:00
4:56 AM,72.0,59.0,64,29.81,10.0,SSE,8.1,-,0.00,Rain,Heavy Rain,160,2013-09-10 11:56:00
5:56 AM,70.0,61.0,73,29.82,10.0,South,9.2,-,0.00,Rain,Light Rain,170,2013-09-10 12:56:00
6:56 AM,70.0,61.0,73,29.85,10.0,South,11.5,-,0.00,,Clear,190,2013-09-10 13:56:00
7:56 AM,70.9,59.9,68,29.86,10.0,South,12.7,-,N/A,,Partly Cloudy,180,2013-09-10 14:56:00
8:56 AM,70.9,61.0,71,29.88,10.0,SSW,16.1,-,0.00,Rain,Light Rain,210,2013-09-10 15:56:00
9:56 AM,72.0,59.9,66,29.89,10.0,South,10.4,-,0.00,,Mostly Cloudy,180,2013-09-10 16:56:00
10:56 AM,73.9,59.9,61,29.88,10.0,South,11.5,-,N/A,,Partly Cloudy,190,2013-09-10 17:56:00
11:56 AM,77.0,56.8,50,29.87,10.0,SSW,13.8,-,N/A,,Partly Cloudy,200,2013-09-10 18:56:00
12:56 PM,79.9,57.9,47,29.86,10.0,South,10.4,-,N/A,,Scattered Clouds,180,2013-09-10 19:56:00
1:56 PM,81.0,55.9,42,29.84,10.0,Variable,4.6,-,N/A,,Clear,0,2013-09-10 20:56:00
2:56 PM,83.8,54.9,37,29.83,10.0,Calm,Calm,-,N/A,,Clear,0,2013-09-10 21:56:00
3:56 PM,83.8,54.9,37,29.83,10.0,NE,8.1,-,N/A,,Partly Cloudy,40,2013-09-10 22:56:00
4:56 PM,81.9,50.9,34,29.81,10.0,Calm,Calm,-,N/A,,Partly Cloudy,0,2013-09-10 23:56:00
5:56 PM,81.0,50.9,35,29.83,10.0,North,5.8,-,N/A,,Clear,10,2013-09-11 00:56:00
6:56 PM,79.9,55.9,44,29.84,10.0,West,4.6,-,N/A,,Clear,280,2013-09-11 01:56:00
7:56 PM,79.0,55.9,45,29.85,10.0,South,6.9,-,N/A,,Partly Cloudy,170,2013-09-11 02:56:00
8:56 PM,77.9,56.8,48,29.86,10.0,SSE,4.6,-,N/A,,Clear,160,2013-09-11 03:56:00
9:56 PM,77.9,54.9,45,29.86,10.0,South,8.1,-,N/A,,Clear,170,2013-09-11 04:56:00
10:56 PM,74.8,52.9,46,29.87,10.0,Calm,Calm,-,N/A,,Clear,0,2013-09-11 05:56:00
11:56 PM,73.9,54.0,50,29.88,10.0,SSE,5.8,-,N/A,,Mostly Cloudy,150,2013-09-11 06:56:00